TimeEDT,TemperatureF,Dew PointF,Humidity,Sea Level PressureIn,VisibilityMPH,Wind Direction,Wind SpeedMPH,Gust SpeedMPH,PrecipitationIn,Events,Conditions,WindDirDegrees,DateUTC
12:53 AM,73.0,69.1,87,29.87,10.0,Calm,Calm,-,N/A,,Mostly Cloudy,0,2013-09-01 04:53:00
1:53 AM,72.0,69.1,91,29.86,10.0,Calm,Calm,-,N/A,,Scattered Clouds,0,2013-09-01 05:53:00
2:53 AM,71.1,68.0,90,29.85,8.0,SSW,5.8,-,0.01,Rain,Light Rain,210,2013-09-01 06:53:00
3:53 AM,71.1,68.0,90,29.83,10.0,South,3.5,-,0.02,,Partly Cloudy,170,2013-09-01 07:53:00
4:53 AM,70.0,69.1,97,29.84,8.0,Calm,Calm,-,N/A,,Clear,0,2013-09-01 08:53:00
5:53 AM,70.0,69.1,97,29.84,5.0,Calm,Calm,-,N/A,,Clear,0,2013-09-01 09:53:00
6:53 AM,70.0,68.0,93,29.86,10.0,South,5.8,-,N/A,,Clear,190,2013-09-01 10:53:00
7:53 AM,70.0,68.0,93,29.87,7.0,SW,4.6,-,N/A,,Clear,220,2013-09-01 11:53:00
8:53 AM,70.0,68.0,93,29.87,10.0,Calm,Calm,-,N/A,,Clear,0,2013-09-01 12:53:00
9:53 AM,73.0,69.1,87,29.88,10.0,South,4.6,-,N/A,,Partly Cloudy,190,2013-09-01 13:53:00
10:53 AM,75.9,69.1,79,29.88,10.0,SW,5.8,-,N/A,,Scattered Clouds,220,2013-09-01 14:53:00
11:53 AM,79.0,66.9,66,29.86,10.0,South,6.9,-,N/A,,Clear,190,2013-09-01 15:53:00
12:53 PM,79.0,69.1,72,29.86,10.0,SW,6.9,-,N/A,,Clear,220,2013-09-01 16:53:00
1:53 PM,79.0,69.1,72,29.86,10.0,Variable,6.9,-,N/A,,Clear,0,2013-09-01 17:53:00
2:53 PM,81.0,66.9,62,29.85,10.0,South,6.9,-,N/A,,Clear,180,2013-09-01 18:53:00
3:53 PM,81.0,68.0,65,29.83,10.0,SSW,5.8,-,N/A,,Mostly Cloudy,200,2013-09-01 19:53:00
4:53 PM,81.0,69.1,67,29.81,10.0,SSW,6.9,-,N/A,,Scattered Clouds,200,2013-09-01 20:53:00
5:53 PM,81.0,70.0,69,29.81,10.0,SSE,4.6,-,N/A,,Scattered Clouds,160,2013-09-01 21:53:00
6:53 PM,79.0,70.0,74,29.81,10.0,South,4.6,-,N/A,,Mostly Cloudy,170,2013-09-01 22:53:00
7:53 PM,75.9,71.1,85,29.82,10.0,Calm,Calm,-,N/A,,Partly Cloudy,0,2013-09-01 23:53:00
8:53 PM,73.9,70.0,87,29.83,9.0,Calm,Calm,-,N/A,,Mostly Cloudy,0,2013-09-02 00:53:00
9:53 PM,73.0,70.0,90,29.84,8.0,SSE,3.5,-,N/A,,Clear,160,2013-09-02 01:53:00
10:53 PM,72.0,70.0,93,29.84,7.0,SSE,3.5,-,N/A,,Clear,150,2013-09-02 02:53:00
11:53 PM,70.0,68.0,93,29.85,3.0,Calm,Calm,-,N/A,,Clear,0,2013-09-02 03:53:00